RH
25 25 24 22 20 19 18 15 13 12 10 10 9 9 8 6 4 3 2 3 5 13 22 19 27 39 27 18 31 37 31 31 37 53 71 80 83 82 80 79 79 80 77 72 76 82 78 74 77 81 82 84 92 98 92 73 53 40 35 37 41 47 51 53 50 48 48 46 44 40 34 27 20 17 15 14 14 14 14 13 12 12 12 12 13
18 19 18 15 15 14 13 12 11 11 9 9 9 9 8 4 3 4 2 6 14 23 26 22 30 37 25 26 46 52 47 52 66 76 80 83 87 86 80 80 84 86 77 66 71 82 80 78 82 84 85 89 96 98 87 68 52 44 45 49 54 55 52 50 47 46 45 42 37 30 23 18 15 14 14 14 14 14 13 13 12 13 13 13 13
12 15 14 12 12 10 10 10 9 10 8 9 9 6 5 4 3 5 5 10 19 22 21 21 29 34 32 45 66 71 70 78 88 87 84 85 86 83 80 85 89 86 75 65 70 81 83 84 87 89 92 97 100 98 90 77 65 59 59 59 57 54 50 48 47 45 40 33 26 20 16 15 15 14 14 15 14 14 14 13 13 13 14 14 14
11 11 10 9 9 8 8 9 8 9 7 9 12 11 13 13 8 7 8 15 20 17 22 34 45 50 54 64 77 79 79 90 95 87 83 85 84 80 80 87 89 81 72 68 73 82 87 89 92 94 97 98 99 98 92 82 74 70 68 64 58 56 53 50 46 38 30 22 17 14 13 14 15 15 15 15 15 15 15 14 14 15 15 16 16
8 7 7 6 6 7 7 7 7 7 6 9 19 33 45 41 29 23 21 31 39 34 42 59 64 66 71 77 82 83 87 95 91 82 81 83 82 81 82 85 85 81 76 76 81 86 90 93 94 96 96 97 97 97 91 83 78 74 67 61 58 56 51 44 35 27 19 15 14 14 14 14 15 16 15 16 16 16 15 16 16 17 17 17 17
6 4 5 5 5 6 5 5 6 6 5 7 14 31 54 60 49 36 30 39 47 45 56 75 80 79 80 84 85 87 94 96 88 82 82 83 85 86 85 84 84 84 82 83 88 92 95 98 95 93 93 94 96 97 93 87 79 68 60 57 55 51 43 32 23 18 15 15 15 16 17 17 17 18 18 18 18 18 18 18 18 19 18 18 18
7 3 3 4 4 5 4 3 5 6 5 5 5 10 33 57 57 46 45 48 42 42 60 77 83 79 77 83 87 88 93 93 90 88 84 85 89 90 89 87 86 88 89 91 93 94 97 98 93 92 93 95 98 96 87 77 67 60 58 56 50 40 29 20 17 16 17 18 19 20 21 21 21 21 21 21 20 21 21 20 20 20 19 19 20
6 5 3 4 4 3 3 4 5 6 4 4 5 3 12 36 51 56 65 66 54 54 68 75 77 79 80 83 82 79 79 82 85 86 83 85 89 88 90 93 93 92 93 95 96 96 97 96 94 97 99 96 93 83 72 64 59 59 57 49 37 26 19 17 18 19 21 22 23 23 23 23 24 24 23 23 22 22 22 21 21 21 21 21 21
5 7 5 3 4 3 3 5 6 6 5 4 5 5 6 15 29 42 52 58 61 66 72 73 72 76 81 80 74 69 67 71 75 77 84 90 91 91 93 95 95 94 95 97 95 93 95 97 99 101 98 89 78 68 62 59 59 57 48 35 24 19 18 20 21 23 24 24 24 25 25 25 26 26 26 25 24 23 23 22 22 23 24 24 24
5 5 5 3 4 3 3 6 6 4 4 5 4 5 6 7 11 21 30 38 53 62 62 63 63 68 73 71 65 60 61 70 73 73 83 91 93 95 97 98 96 93 95 96 93 93 96 100 99 98 91 77 65 59 57 58 57 48 34 23 20 20 22 23 24 25 25 25 26 26 27 27 28 28 28 27 26 25 24 23 23 23 24 25 26
8 4 4 4 3 4 4 6 6 4 4 4 5 4 5 6 8 14 19 23 39 54 55 52 53 59 62 59 57 59 63 71 71 72 81 88 89 91 96 99 95 91 93 95 97 96 96 97 93 88 79 64 57 56 58 58 49 35 24 20 22 23 24 25 25 26 25 26 27 27 28 28 30 31 30 30 28 27 26 26 26 25 25 26 28
11 5 4 5 3 4 4 5 5 4 5 4 5 6 5 7 9 11 12 17 35 54 57 53 52 55 56 55 58 63 68 69 69 77 87 92 93 92 97 101 94 89 92 92 93 90 88 92 90 81 68 57 55 58 57 50 35 24 22 22 24 25 26 27 27 26 26 27 27 27 28 30 32 33 32 32 30 29 29 28 28 28 28 28 29
10 5 5 5 3 4 4 6 6 4 6 5 5 6 6 7 9 8 10 23 44 58 60 59 57 53 50 49 52 59 64 65 69 79 87 90 90 88 94 100 92 88 89 88 90 92 94 99 91 73 60 55 58 60 51 38 26 22 24 25 26 27 27 28 27 27 26 26 27 28 30 33 35 36 35 34 33 31 31 30 30 31 31 32 31
8 4 5 5 3 5 5 5 6 5 5 6 6 7 7 7 8 10 15 27 44 57 61 60 55 46 38 39 49 59 64 62 62 71 82 87 85 80 83 88 85 85 88 88 93 97 98 96 82 64 57 58 60 56 41 28 23 24 26 27 27 28 29 30 28 27 26 26 27 29 31 34 36 37 37 35 34 33 32 32 33 33 35 36 35
7 6 5 6 4 4 5 6 6 6 6 6 7 8 7 7 10 15 21 28 38 51 56 52 46 39 38 45 55 61 62 59 57 65 80 90 87 78 74 77 81 84 86 85 91 97 97 89 72 59 59 62 59 46 31 24 25 27 28 28 29 29 30 31 29 28 27 27 28 30 32 35 36 37 37 35 35 35 34 35 34 35 37 38 36
9 8 6 6 5 4 5 6 6 6 6 6 7 8 8 8 12 19 22 26 35 45 46 41 39 42 48 54 55 55 54 55 57 62 72 85 86 75 68 72 80 86 83 81 90 101 98 83 66 60 63 62 51 35 25 25 28 29 30 30 30 30 31 31 31 29 28 28 29 31 33 35 36 36 36 36 36 36 36 36 37 38 39 38 34
9 8 8 9 6 4 5 6 6 6 6 7 7 8 8 9 14 21 23 25 33 38 36 34 39 48 53 53 52 50 49 49 53 56 63 79 85 73 67 73 82 87 84 84 95 101 92 77 65 63 64 56 39 27 24 28 30 31 32 31 30 31 30 31 32 30 30 30 31 33 33 34 34 35 36 36 36 37 37 38 40 42 40 37 31
11 7 10 10 6 5 6 6 6 6 6 7 7 7 8 9 15 23 25 25 28 29 28 30 40 49 51 51 51 50 51 52 56 61 67 79 83 74 72 78 85 88 88 93 99 94 82 71 64 62 59 45 30 24 27 32 33 33 32 31 30 30 30 32 33 32 32 33 33 33 32 33 34 35 36 36 36 37 38 41 44 43 40 34 27
12 7 7 8 5 5 6 6 6 7 6 6 7 7 7 8 12 21 24 24 23 22 24 31 39 44 45 47 48 50 57 61 63 65 67 75 83 82 79 79 82 87 90 93 90 81 72 65 62 59 49 34 25 26 32 34 34 33 31 31 31 31 32 32 34 34 34 34 34 33 33 33 35 36 37 37 37 39 42 45 45 42 38 30 24
10 8 7 6 6 6 6 6 6 6 7 7 7 8 9 9 10 16 20 22 22 20 23 32 38 39 42 45 46 50 59 63 65 63 61 70 83 83 76 75 80 86 87 85 78 70 65 61 57 51 38 26 25 30 35 35 33 32 31 32 34 35 34 34 35 37 36 35 35 33 33 33 35 37 37 37 38 42 46 46 45 41 35 27 23
10 12 12 7 5 7 6 7 7 7 7 7 7 8 9 9 10 14 19 22 23 21 25 34 37 38 43 47 48 50 54 59 66 67 60 61 67 67 69 75 82 85 81 75 69 62 58 55 50 42 29 24 27 32 35 34 32 32 32 34 37 38 37 36 37 39 37 36 35 34 33 34 36 37 38 39 41 45 48 47 45 40 32 26 23
11 13 14 7 5 7 7 7 7 7 8 8 10 11 11 12 14 16 20 25 25 24 30 36 37 40 44 47 48 51 53 58 67 68 56 48 53 59 69 79 83 80 72 66 61 56 53 49 43 33 25 25 30 34 34 33 32 34 34 37 40 41 40 39 39 40 39 38 36 35 34 34 36 38 39 41 44 48 49 47 44 38 30 26 23
13 11 10 7 7 7 7 8 8 9 10 10 12 13 13 17 21 21 23 28 28 28 35 39 38 41 43 44 45 47 53 59 64 59 42 37 52 64 74 82 79 71 65 60 57 52 48 44 37 29 25 27 31 33 33 33 34 35 37 40 43 45 45 42 40 42 42 40 38 36 34 34 37 39 40 43 47 49 49 46 43 37 29 25 23
15 11 10 7 7 8 8 9 9 9 11 12 14 14 16 22 25 25 28 32 31 32 38 38 37 39 42 44 41 37 38 43 45 40 29 34 55 67 73 77 70 63 61 59 55 50 44 39 33 28 26 28 32 33 33 33 34 37 39 42 46 49 50 45 42 44 46 43 40 38 36 36 38 41 43 45 49 50 48 45 42 36 30 26 24
14 11 10 7 8 10 9 9 10 10 11 14 18 18 20 26 27 27 32 35 33 35 36 34 34 38 44 46 41 33 27 24 26 25 23 36 57 66 69 70 66 63 62 59 54 48 41 37 31 27 26 28 31 33 32 33 36 38 41 46 51 54 53 49 44 47 50 46 41 40 39 40 41 43 45 48 51 51 48 45 42 37 31 27 25
13 12 10 9 10 10 10 11 10 11 12 17 23 23 23 27 26 26 31 34 35 36 35 33 36 42 49 49 42 32 24 22 24 24 23 38 58 65 64 66 65 64 62 59 55 48 41 36 30 27 27 29 31 32 32 34 36 39 43 49 55 56 56 53 48 50 55 49 43 42 42 43 44 44 47 50 52 50 47 46 44 39 34 30 27
15 13 11 10 11 10 11 12 11 11 16 22 28 27 26 27 25 24 27 32 37 38 35 37 42 48 53 52 43 32 24 24 29 27 24 38 58 64 63 65 65 64 64 61 56 49 42 36 31 28 29 30 32 33 34 35 37 41 47 53 57 58 59 58 51 53 59 53 45 44 45 46 46 46 48 51 52 51 49 48 47 43 38 33 29
17 13 12 11 11 12 12 12 13 15 19 24 27 27 27 28 25 23 27 34 38 39 39 43 47 50 54 52 43 30 24 28 35 34 31 41 58 64 63 64 64 63 64 61 57 52 45 39 33 30 30 31 33 34 36 37 39 44 50 55 58 60 63 61 54 56 63 57 47 46 47 48 48 48 49 51 52 52 51 52 52 49 43 37 32
17 12 14 11 11 13 14 15 16 17 19 22 23 23 25 25 24 26 34 40 42 43 45 47 47 50 53 50 41 29 24 31 42 44 42 49 61 65 64 64 64 65 64 61 58 54 49 43 37 32 32 33 35 37 38 39 43 49 53 57 59 61 65 63 55 57 66 61 51 49 49 50 51 51 51 52 53 54 53 55 57 55 49 42 36
17 14 14 12 12 14 16 18 18 18 19 19 21 25 28 29 32 38 43 45 46 47 46 44 44 47 49 44 36 28 24 30 44 53 54 55 60 65 67 67 66 66 66 63 61 58 53 48 41 36 34 35 38 40 40 41 46 51 54 57 58 61 66 63 55 60 70 66 55 51 51 53 55 55 54 53 53 54 55 59 61 60 54 46 40
15 16 15 13 15 15 18 21 20 19 18 20 28 35 37 37 40 44 47 48 48 46 40 36 35 38 39 36 31 27 24 25 35 47 54 58 60 64 69 71 72 72 72 69 66 62 59 54 48 42 39 40 43 45 43 45 49 52 55 57 58 61 66 61 56 65 74 69 59 54 53 57 60 60 58 57 56 56 59 64 67 65 60 52 44
17 19 16 14 17 19 23 23 20 18 20 29 38 39 36 35 34 36 40 45 47 43 35 31 31 32 32 31 28 25 23 22 23 28 38 51 64 71 74 73 73 75 76 75 71 66 64 61 56 51 47 47 48 48 46 48 51 53 56 57 58 64 68 60 57 68 76 71 63 58 57 62 65 65 63 63 64 63 64 70 72 70 65 57 48
19 19 16 16 20 25 26 23 19 21 29 40 42 37 34 34 31 29 30 34 40 41 35 31 31 31 30 28 26 24 23 22 23 24 28 35 49 66 76 79 79 78 76 75 72 69 67 67 64 60 57 54 53 51 51 52 54 55 57 58 60 68 71 61 58 69 76 74 69 62 61 67 71 68 67 69 71 69 67 71 75 75 70 62 53
20 20 18 19 23 26 25 22 21 27 39 46 41 36 38 36 32 29 26 24 29 35 36 35 32 31 32 30 28 27 26 27 29 32 33 29 32 46 61 70 75 77 75 74 73 72 71 70 70 69 66 63 60 58 57 57 56 56 57 60 63 72 74 65 61 70 77 76 73 67 64 71 75 72 70 71 75 75 70 68 72 76 74 68 59
22 20 19 20 23 24 23 22 26 36 47 48 40 38 40 37 32 30 26 23 22 25 33 38 37 35 35 33 32 32 33 35 36 35 33 30 29 33 41 49 60 71 77 78 79 78 74 69 69 70 70 69 69 68 66 64 61 58 60 64 67 73 78 69 63 71 78 77 74 71 69 73 77 78 74 72 75 78 74 69 68 69 70 68 63
23 21 20 21 22 24 25 28 38 50 54 49 43 40 39 35 32 29 26 24 21 21 28 38 42 40 37 36 37 38 38 39 39 35 32 31 32 33 38 47 59 72 81 81 79 79 77 73 68 64 64 67 70 72 71 69 65 60 63 68 70 76 81 73 65 71 79 78 76 76 74 73 77 80 80 79 78 80 80 76 71 68 67 69 68
24 22 22 24 26 29 33 41 53 59 56 49 45 40 35 32 29 26 25 24 22 22 27 36 42 41 39 39 41 42 42 40 37 35 33 33 33 34 39 47 56 68 76 78 79 80 83 85 79 69 66 67 70 74 78 80 79 75 73 70 70 77 81 71 65 73 80 79 79 81 78 76 77 81 86 89 86 85 86 85 80 74 70 71 72
26 26 26 29 33 37 44 51 55 53 48 43 38 33 31 29 26 25 25 25 25 26 29 35 40 41 41 41 40 41 41 38 36 34 32 33 33 33 37 46 59 72 77 81 87 87 88 91 90 86 83 80 79 81 83 85 86 85 82 75 72 78 79 69 65 74 80 79 82 84 81 78 79 82 88 93 92 92 95 95 91 83 76 74 75
31 31 32 35 40 46 50 50 47 43 40 36 32 29 28 27 26 25 26 28 29 30 32 36 38 40 39 37 37 39 39 37 36 34 33 34 33 31 32 38 47 55 56 62 71 73 73 80 89 95 97 94 92 89 86 90 94 92 87 81 76 77 74 67 67 74 79 81 84 86 84 83 84 86 89 92 94 97 101 100 97 91 83 80 80
34 33 36 41 47 52 50 45 41 38 34 30 27 27 26 26 27 28 29 32 33 33 35 36 37 38 38 37 39 40 40 38 36 35 35 35 35 36 37 38 40 42 44 49 52 52 58 72 84 90 90 84 79 76 76 87 100 101 93 82 76 76 71 67 70 75 77 79 82 86 87 88 88 90 90 90 95 100 102 99 98 96 90 85 85
38 40 46 51 52 50 45 39 36 34 33 33 33 33 34 35 36 37 39 40 39 38 39 39 41 42 41 41 40 39 38 37 36 37 38 38 40 41 41 42 43 43 43 45 44 42 46 53 59 63 65 62 60 63 74 89 99 100 91 78 73 76 74 69 70 71 70 74 80 87 92 93 93 94 93 93 97 102 102 100 99 98 95 90 90
48 49 51 50 46 42 39 39 42 45 47 48 47 46 46 46 46 47 48 48 47 46 46 45 46 45 43 42 41 40 40 40 40 40 41 41 42 43 43 44 44 43 43 43 42 42 41 40 43 49 52 51 48 52 70 92 100 93 80 71 70 76 76 70 65 64 65 71 79 89 96 97 96 96 95 95 98 101 102 101 99 99 97 94 93
48 46 47 46 44 47 50 55 59 59 59 57 54 53 51 49 50 51 50 50 50 49 49 48 47 46 45 45 44 43 43 43 42 43 43 43 44 45 45 46 44 44 44 42 41 42 41 42 47 50 49 49 48 45 53 76 93 88 72 64 67 72 70 63 58 59 63 69 79 91 96 95 95 98 97 97 99 101 102 101 100 100 100 97 96
46 50 55 55 56 61 66 69 68 64 60 57 53 52 51 50 52 53 54 56 56 53 52 51 50 50 49 48 48 47 47 46 46 46 47 48 49 49 48 46 43 42 41 42 45 47 45 45 49 52 50 47 46 44 43 56 75 78 67 63 67 67 63 57 54 55 58 64 75 85 86 84 89 96 98 98 100 101 101 101 101 101 101 99 98
53 60 61 54 52 55 56 58 59 58 56 53 49 48 48 49 53 57 60 62 61 59 59 58 56 56 54 52 51 50 49 49 49 49 49 48 48 47 45 42 41 40 41 43 45 45 46 50 53 53 50 46 50 58 63 70 81 81 73 71 70 63 57 55 52 54 63 74 82 85 85 86 90 95 97 98 101 101 100 101 101 101 101 100 98
58 60 54 45 45 47 47 50 54 56 57 54 49 47 46 47 51 55 58 60 60 59 59 58 57 56 54 51 49 47 46 45 43 42 41 40 39 38 37 37 38 40 42 42 43 50 60 64 59 51 47 52 65 76 79 83 89 86 78 77 78 71 64 58 55 57 68 79 81 82 91 99 100 98 97 97 99 100 101 101 101 100 102 101 97
64 60 53 50 53 56 57 59 61 61 59 56 52 50 48 49 52 53 53 54 53 52 52 51 50 50 48 46 44 43 41 39 37 36 35 35 35 36 36 37 40 44 47 50 58 69 73 64 54 49 47 52 61 66 65 67 70 70 71 78 85 84 77 69 63 60 61 65 68 75 90 100 98 94 94 96 99 101 101 101 100 100 102 100 96
68 61 58 60 63 66 67 66 65 63 60 58 55 53 52 54 56 57 57 56 54 51 49 47 46 44 43 42 40 40 39 37 37 37 37 38 39 39 39 40 40 42 47 51 56 60 57 50 48 50 50 50 53 57 60 61 61 66 78 86 88 88 84 77 73 69 68 73 77 79 86 93 94 94 96 98 100 101 100 100 101 100 101 101 97
61 58 63 68 69 70 70 67 66 64 61 59 57 56 56 59 62 63 63 61 58 54 50 47 45 43 41 40 39 39 39 39 39 40 41 42 41 39 38 39 38 38 40 41 41 43 47 51 52 50 50 54 57 63 70 73 71 77 92 98 95 96 97 93 89 82 78 82 85 82 85 93 98 100 100 99 99 101 100 100 100 100 101 101 98
61 63 68 72 72 72 71 69 67 64 62 61 61 59 60 62 62 62 62 59 56 53 50 47 45 42 40 40 39 40 41 42 43 44 42 40 39 37 36 36 37 38 39 40 43 49 53 56 55 53 54 57 61 68 79 85 83 87 96 99 96 96 97 99 101 96 84 80 84 88 94 100 99 97 97 98 99 101 100 100 100 101 101 100 97
75 77 76 75 74 73 71 68 66 65 64 65 64 63 62 61 60 59 56 53 51 50 49 47 46 45 44 44 44 45 46 45 44 42 39 38 37 38 39 40 44 46 47 49 53 56 58 57 56 56 60 63 64 67 73 75 76 80 86 89 89 90 87 88 96 98 91 87 91 93 93 95 95 95 97 99 100 100 100 100 101 101 101 100 97
Wind_Speed
48 47 46 45 44 42 43 42 38 38 39 38 37 35 33 32 32 31 30 30 28 24 23 24 25 27 28 28 28 29 28 27 27 25 25 25 25 26 25 25 24 22 21 21 21 20 19 19 19 19 19 18 18 18 17 17 16 15 15 16 17 18 19 19 20 21 22 23 25 26 27 29 30 30 31 31 31 31 31 32 32 33 33 34 34
48 46 44 43 42 42 41 39 37 38 39 38 36 33 32 33 32 31 30 28 24 21 23 25 26 28 28 26 27 28 27 27 25 23 23 25 26 26 26 25 24 22 21 21 21 20 20 19 19 19 19 19 19 18 18 17 17 16 16 17 18 18 19 19 20 21 23 24 26 27 28 29 30 30 30 30 31 31 32 33 33 34 34 34 34
47 45 43 42 42 41 38 36 36 37 38 37 35 33 32 33 31 30 28 26 23 23 26 28 27 27 26 25 26 28 27 26 24 23 24 25 26 26 26 24 22 21 22 22 22 21 20 19 19 19 19 19 19 19 19 18 17 16 16 17 17 18 19 20 22 23 24 25 27 27 28 29 30 30 30 31 31 32 33 33 34 34 35 35 35
45 42 40 39 39 38 35 34 35 36 37 35 33 31 30 30 29 26 25 24 24 27 28 29 28 26 26 25 25 27 26 24 24 24 26 27 26 26 24 22 21 21 22 22 22 21 20 19 19 19 19 20 20 20 19 16 15 15 16 16 17 18 19 21 22 24 25 26 28 28 28 27 28 29 31 31 32 33 34 34 34 35 34 34 34
40 38 36 37 36 34 33 34 36 35 34 34 31 25 24 26 26 24 24 23 23 26 28 27 27 27 26 26 26 27 26 25 25 26 27 27 26 25 23 21 20 20 21 21 21 20 19 19 19 20 21 21 21 21 18 14 13 14 15 16 17 19 20 21 23 25 26 27 28 28 28 28 28 29 30 32 32 33 34 34 34 34 34 34 34
37 35 34 35 35 33 34 35 34 33 32 33 32 26 24 25 25 25 25 24 23 26 27 25 26 27 27 27 28 28 28 28 26 25 26 27 26 24 23 21 20 19 20 20 20 19 19 19 20 22 22 23 22 18 14 12 13 13 14 16 17 19 21 22 23 25 26 26 27 28 29 30 30 31 31 32 33 33 33 33 33 34 34 34 34
35 34 34 34 34 34 34 33 31 31 32 33 32 29 27 26 26 26 26 25 25 27 26 25 25 26 25 25 25 26 27 27 26 26 27 27 26 24 24 22 20 20 20 20 20 19 19 21 22 23 22 20 17 13 11 11 12 13 14 16 18 20 21 22 23 24 25 25 27 28 30 31 32 32 33 33 33 33 33 34 34 34 34 34 35
34 33 33 33 34 34 33 31 30 32 34 33 32 30 28 27 26 26 25 25 26 27 26 25 26 26 25 24 22 22 23 24 26 27 27 26 25 24 25 23 21 21 21 20 20 19 20 21 22 19 15 12 11 10 10 11 12 13 15 17 19 20 21 22 22 23 24 26 27 29 30 31 32 33 34 34 34 34 33 33 33 34 34 35 36
34 33 33 33 33 34 32 29 30 33 33 33 32 30 28 27 25 24 24 24 25 27 26 25 25 25 25 24 23 22 23 23 25 26 26 25 25 25 26 23 20 21 21 20 20 19 19 21 19 14 11 10 10 10 10 11 12 14 16 18 19 20 21 21 22 23 25 26 28 29 30 31 32 33 34 34 35 35 34 33 33 33 33 34 35
35 34 34 34 34 34 31 29 31 33 32 32 31 29 28 26 23 23 23 23 24 25 25 25 25 24 24 24 24 23 23 24 25 26 26 26 26 25 25 23 21 20 20 20 19 18 18 18 15 12 10 10 10 10 10 12 14 15 16 18 19 19 20 21 23 24 26 27 28 29 31 32 33 33 34 34 34 34 35 34 34 34 34 34 35
37 35 34 35 35 34 31 30 31 32 31 30 29 28 27 25 22 22 23 24 24 24 24 25 25 25 25 25 24 23 23 25 26 27 27 27 27 28 27 25 21 20 20 20 18 18 17 16 13 11 11 11 11 11 12 14 15 16 17 18 18 19 21 22 24 25 26 28 29 30 31 32 33 33 33 33 33 34 34 35 36 36 36 35 36
37 34 34 35 35 32 31 31 31 32 30 28 27 27 27 25 22 23 24 24 24 24 25 25 25 24 24 23 22 22 23 25 25 25 25 24 25 27 28 25 20 19 20 18 16 17 17 16 13 12 12 11 12 13 14 15 15 16 17 18 19 20 21 23 24 26 27 28 29 30 31 32 32 32 32 33 33 34 34 35 35 36 36 36 36
37 35 35 35 33 31 31 31 32 32 29 27 27 28 27 25 23 23 24 24 24 24 23 23 23 22 22 23 23 23 24 25 25 23 23 22 21 20 21 19 18 19 18 16 17 18 17 15 13 13 13 12 13 14 15 15 16 16 17 18 19 21 22 24 25 26 27 28 29 30 31 31 32 32 32 32 33 34 34 35 35 35 36 37 37
38 37 37 36 33 31 31 31 32 32 29 28 28 28 27 25 24 23 24 24 23 22 21 21 22 22 23 24 24 24 24 25 25 23 22 21 20 18 17 18 18 18 17 16 17 18 17 15 13 13 13 13 14 15 15 16 16 17 18 19 20 22 23 24 25 26 27 28 29 30 31 31 32 32 32 33 33 33 34 34 35 35 36 37 37
41 40 39 37 34 32 31 31 32 32 30 29 28 28 27 24 24 24 23 24 23 23 22 22 22 22 23 24 24 24 23 23 24 23 22 20 19 19 18 18 18 17 17 17 17 17 16 15 14 14 14 15 16 16 16 17 17 17 18 20 21 23 24 25 26 26 27 28 29 30 31 31 32 32 32 32 32 32 33 34 34 35 35 36 37
44 41 40 39 35 32 31 31 33 32 30 29 28 27 25 24 24 24 24 24 24 23 22 21 21 21 21 22 22 21 21 21 22 23 23 20 19 19 18 17 17 17 17 16 17 17 17 16 16 15 16 16 17 17 17 17 17 18 19 21 22 23 24 25 26 27 27 29 30 31 31 32 32 32 32 32 32 32 33 33 34 35 35 36 37
44 40 40 40 36 33 32 32 33 33 31 29 27 26 25 24 25 26 25 25 25 24 23 21 20 20 20 20 20 20 20 21 23 24 24 21 19 18 17 17 18 18 17 17 18 18 17 17 17 16 17 17 17 17 17 17 18 19 20 21 23 24 25 25 26 27 28 29 30 31 32 32 32 32 31 31 31 32 32 33 33 34 34 36 37
43 41 41 40 36 34 34 33 33 33 30 28 27 26 25 25 27 27 26 26 25 24 23 21 20 19 19 20 21 21 21 22 23 23 22 19 18 18 17 17 18 18 18 19 19 18 17 18 17 17 17 18 18 18 18 18 19 20 21 22 23 24 25 25 26 27 28 29 31 31 32 32 32 31 31 31 32 32 32 32 32 33 34 35 37
42 43 44 41 37 35 34 33 33 32 30 28 27 26 26 26 27 27 27 27 26 24 22 21 21 20 20 21 22 22 22 21 21 20 20 18 17 18 17 16 17 18 19 19 18 18 18 18 18 18 18 18 18 18 18 19 19 20 21 22 23 24 25 25 26 27 28 29 31 31 32 32 31 31 31 32 32 32 31 31 32 33 34 36 37
43 45 45 41 37 35 34 33 33 32 30 29 27 26 26 26 27 28 28 28 27 25 23 21 21 20 20 22 22 22 22 21 20 19 18 18 17 17 16 16 17 18 18 18 18 18 18 18 18 19 19 19 19 19 19 19 20 21 21 22 23 24 25 25 26 27 28 30 31 31 31 31 31 31 32 32 32 31 30 31 31 33 34 36 37
44 45 43 40 38 36 34 33 32 32 30 28 27 26 26 26 27 28 29 28 28 26 23 21 21 20 20 22 22 21 22 22 20 18 18 18 18 17 17 17 17 17 18 18 18 18 18 19 20 20 20 20 20 20 20 20 21 21 21 22 24 24 25 26 26 27 28 30 31 31 31 31 31 32 32 32 31 30 30 31 31 33 34 36 37
44 44 41 39 38 36 34 33 31 31 29 27 26 26 25 25 27 28 28 27 27 26 23 21 21 20 20 22 22 21 21 21 21 19 19 19 18 18 17 17 17 18 18 18 18 18 19 20 21 21 21 21 21 21 21 21 21 21 22 23 24 25 26 26 27 27 29 30 31 31 31 31 31 32 32 32 30 30 30 30 31 33 34 36 36
44 44 42 40 38 36 34 32 31 31 28 27 27 26 25 24 26 27 26 26 27 25 22 21 21 20 20 22 23 22 22 22 22 22 20 18 17 17 17 17 17 18 18 18 19 19 20 21 21 22 22 22 22 22 22 22 22 22 23 24 25 26 26 27 27 28 29 30 31 31 31 31 31 32 32 31 30 29 30 30 31 32 34 35 36
46 45 43 41 38 35 33 32 32 31 28 26 26 25 24 24 26 26 25 26 27 24 22 21 21 20 21 22 23 23 23 23 23 22 20 17 17 17 17 18 18 18 19 19 19 20 21 22 23 23 23 23 23 23 23 22 22 23 24 24 25 27 28 28 29 28 29 30 31 31 31 31 31 31 31 31 30 29 29 30 31 32 33 35 36
47 46 44 41 38 35 33 33 33 31 27 25 25 24 24 24 26 26 25 26 26 24 22 21 21 21 22 22 23 24 23 23 22 22 19 17 17 17 18 18 19 20 20 20 21 22 23 23 24 24 24 24 24 24 24 23 23 24 25 25 26 28 29 29 30 29 29 30 31 31 31 31 31 31 31 30 29 29 29 30 31 32 33 35 36
46 45 43 40 38 35 34 34 32 29 26 24 25 25 24 25 26 25 25 26 26 24 22 22 22 22 22 23 23 23 23 22 22 21 19 18 18 18 19 19 20 21 22 22 23 24 24 25 25 25 25 25 25 25 25 24 25 25 26 26 27 29 30 30 31 30 29 31 31 31 31 31 31 31 31 30 29 29 30 30 31 32 33 35 36
45 44 43 41 38 35 34 33 31 28 26 26 26 26 25 26 26 25 26 26 26 24 23 23 22 22 22 23 23 22 21 21 21 20 19 19 19 20 21 21 22 23 24 25 25 25 25 26 26 26 26 26 26 26 25 25 26 27 27 27 28 29 30 31 32 30 30 31 31 32 31 31 31 31 31 30 29 29 30 31 32 33 34 35 36
46 44 42 40 38 36 34 33 29 27 27 27 27 26 27 27 26 26 26 27 26 25 23 23 23 22 22 23 23 22 20 19 19 19 20 20 21 22 23 23 25 26 26 26 26 26 26 27 27 28 27 27 27 27 26 27 27 28 28 28 29 31 31 32 32 31 30 31 32 32 32 32 31 31 31 30 30 30 31 32 33 33 34 35 36
44 43 41 39 37 35 34 32 29 28 28 27 26 26 27 27 27 27 27 26 25 24 23 23 22 22 22 23 22 21 20 19 19 19 20 22 23 24 25 26 27 28 28 27 27 27 27 28 29 29 29 28 28 27 27 28 28 28 29 30 31 32 32 32 32 31 30 31 32 32 32 32 32 31 31 31 31 31 31 32 33 34 34 35 37
41 41 39 37 35 34 33 31 30 30 28 27 26 26 26 26 27 27 26 26 25 24 23 22 22 22 22 23 22 21 20 19 19 19 21 23 25 26 26 27 28 28 28 28 27 28 28 29 30 30 30 30 29 29 29 29 29 29 30 31 32 33 33 32 32 31 30 31 32 33 33 33 32 31 31 32 32 32 32 33 34 34 34 35 36
40 39 37 35 34 34 33 31 31 30 28 26 25 25 25 24 25 26 25 25 25 23 22 22 22 22 22 22 22 21 20 20 20 20 22 24 26 27 27 28 29 29 29 28 28 29 29 29 30 30 31 31 31 30 30 30 30 31 31 32 33 33 33 32 33 32 30 31 33 33 33 33 32 32 32 33 33 33 33 33 34 34 35 35 36
39 38 36 34 33 32 32 32 32 30 27 26 25 24 23 23 24 24 24 25 24 22 21 21 21 21 21 21 22 21 21 21 21 21 22 24 25 26 27 28 29 29 29 29 29 29 30 30 30 31 32 32 32 32 32 32 32 32 33 33 34 34 33 32 33 32 31 31 33 33 33 33 32 32 32 33 34 34 34 34 34 34 35 35 36
38 37 35 33 32 32 34 34 32 29 27 27 26 25 24 23 24 24 24 24 23 22 22 22 21 21 20 20 21 21 21 21 21 21 23 24 25 27 28 29 30 30 29 29 29 30 31 31 32 32 33 33 33 33 34 34 34 34 34 35 35 34 33 33 32 32 31 32 33 34 34 33 32 32 32 33 34 35 35 35 35 35 35 36 37
37 36 34 34 34 36 36 34 32 30 29 29 29 27 25 25 26 25 24 24 23 24 24 22 20 20 20 20 21 20 20 20 21 22 24 25 26 27 27 29 30 31 30 30 30 30 32 33 34 34 34 34 35 35 36 36 36 36 36 36 36 35 34 33 32 32 32 33 34 34 34 34 33 33 33 33 34 35 35 36 35 35 35 36 37
36 35 36 37 37 37 35 33 31 30 30 31 31 30 28 28 28 27 26 25 25 25 25 24 22 20 20 21 21 21 21 21 23 25 26 26 26 25 26 28 29 30 31 33 33 32 33 34 35 36 35 36 37 37 38 38 38 38 38 37 37 37 35 33 33 33 33 33 35 35 35 35 34 34 34 34 35 35 36 36 36 36 36 36 36
37 37 38 38 37 36 33 32 31 31 32 32 32 32 31 31 31 30 29 28 27 27 27 25 23 22 21 22 22 23 23 24 26 27 27 27 26 25 26 28 29 30 32 35 36 37 38 37 36 36 36 36 38 39 40 40 40 40 39 39 39 38 36 34 33 34 34 35 36 36 36 36 36 35 35 36 36 36 37 37 38 38 37 37 37
39 39 39 37 36 34 33 32 32 32 32 32 32 33 33 33 32 32 31 30 29 28 26 24 23 23 23 23 24 25 26 27 28 28 28 28 28 27 27 29 30 32 34 37 38 39 41 41 40 38 37 37 37 38 40 41 40 39 39 39 39 38 37 35 34 35 35 36 37 38 37 38 37 37 37 38 38 38 39 39 40 40 40 39 38
39 39 38 36 34 33 32 32 32 32 33 33 33 33 34 33 32 31 31 29 28 28 26 25 25 25 26 26 27 28 28 29 30 29 29 29 29 28 29 30 32 34 36 37 38 39 41 43 43 43 41 39 38 38 39 40 40 40 39 39 39 38 37 36 35 35 36 37 38 39 39 39 39 39 40 40 40 41 41 41 41 42 42 40 39
38 37 35 34 33 32 32 33 33 34 34 35 35 35 35 34 33 32 31 29 28 27 27 27 28 28 29 29 29 29 29 29 29 29 29 29 28 28 28 28 30 32 33 33 34 36 39 42 45 48 47 43 40 40 41 42 43 43 40 38 37 37 37 36 35 36 37 38 39 40 40 40 41 41 42 42 43 43 43 42 42 42 43 42 41
36 35 34 34 34 34 34 34 34 35 36 36 36 36 35 34 33 32 30 29 28 28 28 29 29 29 29 29 28 28 29 29 29 29 29 29 28 28 27 27 28 29 30 30 31 34 37 39 41 43 43 41 39 40 43 46 47 42 37 35 37 38 38 36 35 36 38 39 40 40 41 42 42 43 44 45 46 46 45 43 42 42 43 43 42
35 35 34 34 34 35 35 35 34 34 34 33 33 33 32 31 30 28 27 27 28 28 28 29 29 29 29 29 29 29 30 30 29 29 30 29 29 28 28 28 28 29 30 30 31 34 37 37 35 33 33 35 37 39 44 46 42 35 31 33 36 38 37 35 35 37 38 39 41 41 42 43 44 45 46 47 49 49 46 43 43 42 43 43 43
35 35 34 34 35 35 34 32 30 29 27 26 26 25 25 25 25 25 25 26 26 27 27 28 28 28 29 29 29 29 30 30 30 30 31 30 30 30 30 30 31 31 33 33 34 35 37 38 35 32 31 33 36 38 40 38 33 29 30 34 35 35 35 35 36 38 39 40 41 42 43 45 45 46 48 48 50 50 47 44 43 43 42 43 43
34 33 33 33 33 31 29 27 25 23 23 22 21 21 21 21 21 22 22 23 23 24 25 26 26 26 27 27 28 29 30 30 31 32 32 32 32 33 33 34 34 34 35 36 36 36 37 36 35 33 33 33 35 37 37 33 30 31 33 34 34 33 33 35 37 39 40 41 41 42 44 45 46 48 49 49 51 52 48 44 43 43 42 43 42
32 31 30 29 27 25 24 23 23 22 22 22 22 21 20 19 19 20 20 20 22 23 24 24 25 26 27 28 29 30 32 33 33 34 35 35 35 36 37 37 37 38 37 37 36 36 37 36 35 35 35 34 34 36 36 34 33 34 34 34 33 33 34 36 38 40 40 41 42 43 44 45 46 48 49 50 53 53 48 43 43 43 42 42 41
30 29 27 25 22 21 21 22 22 22 22 22 21 20 19 19 19 19 19 21 23 24 25 26 27 28 29 30 32 33 34 35 36 37 38 38 39 40 41 41 41 40 39 38 38 38 38 37 36 36 36 35 34 35 35 33 32 32 33 33 33 34 36 37 40 41 42 43 44 44 45 46 47 48 49 51 53 54 49 44 42 42 41 42 41
31 29 25 23 21 20 20 20 20 20 20 20 20 20 20 20 20 21 22 23 25 27 28 30 31 32 33 34 35 36 37 38 39 40 41 41 42 43 43 43 42 41 41 40 39 38 38 38 37 37 36 35 34 34 34 32 31 33 35 35 36 37 38 39 39 41 43 43 44 44 46 48 47 47 49 50 52 54 51 45 41 40 40 40 40
31 28 25 23 22 21 21 21 20 20 21 21 21 21 21 21 22 24 25 27 28 29 31 32 33 35 36 37 38 39 40 41 42 42 42 43 43 43 43 42 41 40 40 39 38 37 38 39 38 37 37 36 35 35 36 36 35 36 38 38 38 39 40 40 40 41 42 42 43 44 45 46 45 46 47 48 50 51 49 44 41 39 38 39 40
31 28 25 24 23 23 23 23 22 22 22 22 22 22 22 22 24 27 28 29 31 32 33 34 35 36 37 38 39 40 41 41 41 41 41 41 41 41 41 40 39 38 38 38 38 38 39 39 38 37 37 36 36 36 37 37 37 37 38 40 41 42 42 41 41 41 41 42 43 44 44 44 44 45 44 45 47 48 45 42 41 38 37 38 39
32 29 26 25 25 25 25 25 25 25 24 23 23 22 22 24 26 27 29 30 32 33 34 35 36 38 39 39 39 40 40 40 39 39 39 38 39 39 39 38 38 37 37 38 39 38 37 37 37 37 37 35 35 36 36 36 37 37 36 37 40 42 42 42 41 40 40 41 42 43 44 44 44 43 42 43 45 45 42 40 39 37 37 38 38
33 29 27 27 27 28 28 27 27 27 26 25 24 24 24 25 27 28 29 31 32 33 35 36 37 39 39 39 39 39 38 37 36 37 37 37 37 38 38 36 35 35 36 37 36 35 35 36 36 36 35 34 34 35 35 35 37 38 35 34 35 36 37 38 39 39 39 40 41 42 43 43 43 42 42 43 45 44 41 39 38 37 37 37 37
30 28 28 30 30 30 30 29 29 29 28 28 27 27 27 28 29 30 31 32 32 33 35 36 37 38 38 38 37 36 35 34 34 34 35 35 35 35 35 34 34 34 35 35 34 34 34 35 34 34 33 33 34 35 36 36 37 37 36 35 36 36 35 36 37 37 38 39 40 41 42 42 42 42 42 43 45 44 41 39 37 37 37 36 36
Wind_Direction
247 248 249 251 254 255 258 260 262 262 261 262 262 262 260 257 255 257 259 260 261 259 257 258 254 250 253 254 253 255 257 260 262 265 267 267 266 269 273 275 277 281 284 287 289 286 282 282 283 283 284 282 279 275 270 265 261 261 265 269 273 275 276 279 282 286 289 290 292 294 297 299 302 304 306 308 308 308 308 308 307 307 308 308 309
247 248 248 251 253 253 256 257 257 257 258 258 258 256 252 250 252 255 256 257 258 254 251 252 249 250 256 255 253 254 256 258 261 265 267 265 266 268 271 273 277 281 282 286 288 283 280 281 283 284 283 280 275 270 265 261 259 262 267 271 274 276 279 283 286 288 291 293 296 299 302 305 306 308 308 309 309 309 308 308 308 308 308 308 309
246 247 248 248 250 251 251 252 251 252 253 253 252 247 244 247 251 253 255 257 259 257 256 255 253 255 258 256 254 253 252 254 260 265 267 266 266 267 270 274 278 280 281 284 284 280 280 282 284 283 280 276 273 269 265 262 262 266 271 275 278 280 284 286 288 291 295 299 301 304 306 308 310 310 311 311 310 309 309 308 308 308 308 308 308
244 244 244 244 245 246 245 245 245 247 249 249 247 244 246 252 255 255 257 259 261 262 263 264 261 258 258 258 257 254 251 252 258 263 265 265 264 266 270 275 276 278 280 282 280 279 279 281 281 278 275 273 270 267 266 265 266 270 274 277 280 283 286 289 293 297 301 304 306 308 310 311 311 311 312 312 310 309 308 308 308 307 308 308 309
238 239 238 238 239 239 238 239 241 243 244 244 246 252 254 255 257 256 255 257 259 261 265 268 263 256 257 258 256 254 252 252 257 261 263 263 265 269 272 272 272 273 277 279 278 278 278 278 277 274 270 267 265 264 265 266 269 272 275 277 281 286 291 295 299 303 307 309 311 313 314 314 314 314 312 311 310 309 308 307 307 308 309 310 311
232 233 231 232 233 232 233 235 238 239 238 238 242 248 250 249 252 253 252 255 261 264 266 267 260 253 257 260 257 255 254 253 255 259 262 265 267 270 269 267 266 269 275 279 278 278 277 276 274 270 266 264 264 264 264 266 267 270 275 280 286 292 296 301 305 308 311 313 314 316 317 318 317 315 313 312 310 310 309 309 309 310 311 312 312
229 230 229 229 229 230 232 234 233 232 233 236 237 242 247 249 252 253 254 257 261 265 267 266 259 254 260 263 258 256 256 255 254 258 265 268 266 265 263 261 263 267 275 278 278 276 272 271 271 271 271 269 265 260 257 261 266 272 279 286 292 296 301 305 309 311 313 315 317 318 319 318 317 315 314 313 312 312 312 312 312 312 313 313 313
230 230 228 228 229 230 232 230 227 227 231 235 236 240 246 250 253 256 257 258 260 264 268 266 258 255 258 261 260 260 260 258 258 263 267 266 262 259 256 258 263 267 273 276 276 273 269 270 274 276 277 270 258 253 256 264 271 278 285 291 296 300 305 308 311 313 316 318 319 319 318 317 316 315 315 315 314 313 313 313 313 314 314 315 315
230 230 228 228 228 230 231 225 222 225 229 234 238 241 245 249 253 256 258 260 260 262 264 264 260 258 258 260 262 262 262 261 262 267 268 261 260 259 252 254 263 267 270 273 273 271 269 269 270 268 265 260 258 260 265 272 277 282 289 294 299 303 307 310 312 316 318 319 319 318 318 317 316 316 315 315 314 314 314 313 313 314 315 316 316
228 229 228 227 227 229 228 221 220 225 228 233 238 242 246 249 251 255 259 262 263 261 260 260 261 262 261 260 262 263 263 263 263 269 267 258 259 260 251 252 262 266 269 273 271 266 266 269 268 263 260 262 264 265 269 275 279 284 291 296 300 304 307 311 315 317 318 319 318 318 317 317 316 315 315 314 314 314 315 315 315 315 316 317 317
226 226 227 226 226 227 226 221 222 227 230 233 239 245 249 252 253 255 259 261 264 263 259 260 262 262 262 263 264 265 264 264 264 267 266 259 258 259 254 253 259 264 269 272 266 258 261 270 274 267 261 261 261 263 269 274 279 286 293 297 300 304 309 313 316 317 318 318 317 317 317 317 316 315 315 315 315 315 316 316 317 317 317 318 319
226 226 226 226 226 226 225 222 223 228 232 235 241 247 251 254 255 256 258 261 263 262 260 260 261 262 264 265 266 265 265 266 267 266 264 262 262 262 258 253 254 263 268 266 259 255 256 261 264 260 256 255 257 262 269 275 281 287 292 296 300 306 310 314 315 316 316 316 316 317 317 317 316 316 316 316 317 317 317 317 318 319 319 319 320
226 227 226 226 225 223 223 221 222 227 232 235 240 246 251 254 256 258 260 262 264 263 261 261 261 263 266 267 267 266 266 267 268 267 264 264 267 265 258 251 254 264 264 256 253 255 256 254 251 249 249 250 256 263 270 276 281 286 291 296 302 307 310 312 314 315 315 315 316 317 317 317 317 317 317 317 319 319 319 319 319 320 320 320 322
226 226 226 225 223 220 221 220 221 226 230 233 238 245 250 253 257 259 261 264 266 264 259 258 262 266 267 268 267 267 267 266 266 265 264 264 266 264 257 255 259 262 257 250 251 257 259 254 245 242 245 250 257 264 270 275 280 285 292 298 302 306 308 310 312 313 314 315 317 318 318 318 318 318 319 320 320 320 320 320 320 320 321 321 322
224 224 224 224 221 219 219 218 221 226 228 231 236 243 249 253 259 260 261 264 266 264 260 262 267 269 268 267 268 267 266 266 264 262 260 262 265 264 262 261 261 258 255 251 251 256 256 248 239 238 244 251 258 263 269 274 279 286 293 298 302 305 307 309 311 313 315 316 318 319 319 319 320 321 322 321 321 321 321 320 320 321 322 322 323
222 222 222 223 221 218 217 217 221 226 228 231 236 242 249 254 258 260 261 264 267 267 267 270 271 269 268 267 268 269 268 267 265 261 259 260 262 263 263 263 259 255 254 254 255 255 248 240 236 238 245 252 258 263 268 274 281 289 295 299 302 305 307 309 311 313 316 317 318 319 320 321 323 323 323 323 322 322 321 321 322 322 322 323 323
218 219 222 223 219 217 217 217 222 227 230 233 237 242 247 252 256 258 260 264 267 269 272 274 272 268 266 266 267 270 272 269 266 261 257 255 259 263 264 261 256 252 254 257 257 252 243 238 238 241 248 254 258 263 269 277 284 290 296 300 303 306 308 309 312 314 316 318 319 321 322 323 324 324 324 324 323 322 322 322 322 322 323 323 324
215 216 220 221 218 216 217 218 222 228 231 234 237 241 244 248 253 256 259 263 265 269 272 274 272 267 266 268 271 272 272 268 263 258 255 255 259 263 261 258 254 254 258 259 254 246 240 239 240 244 251 255 258 264 271 279 286 292 297 301 305 307 309 311 313 315 317 319 321 322 323 324 324 324 324 324 323 323 323 323 322 322 322 323 325
213 215 220 221 218 217 217 218 222 228 232 235 238 241 244 247 251 255 258 261 265 268 271 271 268 266 267 269 272 272 270 266 258 253 254 258 260 258 257 257 257 257 259 254 245 240 238 240 244 249 253 255 259 266 273 280 287 294 298 302 306 309 312 313 314 316 318 320 322 324 324 324 324 324 325 324 323 323 323 323 322 322 322 324 326
213 216 220 220 219 218 219 219 222 228 233 236 238 242 245 248 251 254 257 261 265 268 270 267 265 265 265 266 269 269 267 263 257 251 254 259 259 259 260 260 258 256 252 244 237 236 239 244 250 252 253 256 261 267 274 282 288 294 299 303 308 311 313 314 315 317 320 322 324 325 324 324 324 325 325 324 324 324 323 322 322 322 323 325 326
215 218 219 220 220 219 220 220 223 229 233 236 240 244 248 250 252 254 256 261 266 270 269 266 264 264 263 264 266 266 264 262 257 252 255 260 260 261 261 259 255 250 244 238 236 239 244 249 252 252 253 256 261 268 275 282 289 294 299 304 309 312 314 315 316 317 321 324 324 324 324 325 325 325 325 325 324 324 323 322 322 322 325 326 326
216 219 219 220 221 221 222 223 224 229 233 236 241 245 248 251 252 253 256 261 266 269 268 265 264 264 262 263 265 265 263 261 258 256 260 262 260 259 258 254 249 244 240 238 240 245 250 252 253 253 254 257 262 269 276 283 290 295 300 305 309 313 314 316 317 318 322 324 324 324 325 326 326 326 325 325 324 323 322 321 321 323 325 326 326
216 218 219 219 221 222 223 223 224 227 230 234 240 245 248 251 253 254 256 261 265 267 267 265 264 264 262 262 265 265 264 262 261 263 264 262 257 256 254 248 243 239 239 240 244 250 254 255 254 253 254 258 263 270 277 284 290 295 300 305 309 313 315 317 318 319 321 323 324 325 326 326 326 325 325 324 323 322 321 321 321 323 325 326 327
215 216 217 218 219 220 222 222 223 225 228 233 240 245 250 252 255 256 258 261 263 266 266 265 265 263 260 260 262 265 266 266 266 267 264 257 253 253 250 244 241 239 240 244 249 255 256 255 253 253 255 260 265 272 278 284 290 295 299 304 308 312 315 317 318 318 320 323 324 325 325 325 325 325 324 323 322 321 321 320 321 322 325 327 328
214 216 216 216 217 218 220 221 223 225 227 233 240 246 251 254 257 259 259 261 263 265 266 265 265 262 258 257 259 263 267 269 270 270 263 253 250 251 247 244 242 241 244 250 254 258 257 255 253 253 256 261 266 273 279 284 290 293 297 302 307 311 314 316 316 316 318 322 324 325 325 325 325 324 324 323 321 321 320 320 320 322 325 328 329
214 216 216 216 216 215 217 220 222 224 226 232 239 245 250 254 258 261 261 262 263 264 265 265 265 261 257 256 258 262 266 269 271 271 262 249 247 248 246 244 244 245 249 254 256 258 257 255 253 254 257 261 267 274 279 283 288 291 295 300 304 309 312 314 314 314 317 321 323 324 324 324 324 323 323 322 320 320 320 320 320 322 325 328 330
213 215 215 215 215 214 217 220 222 224 227 232 239 245 250 253 259 262 262 261 261 262 262 263 262 260 258 257 258 261 264 267 271 270 259 246 244 247 247 246 247 249 252 255 257 258 257 255 254 255 258 262 268 273 278 283 287 289 293 298 303 306 310 312 312 312 315 319 322 322 323 323 323 323 322 321 320 319 319 320 321 323 326 329 331
211 213 214 214 213 213 216 219 221 224 228 233 239 245 250 254 258 261 260 259 258 259 259 259 260 260 258 256 257 260 263 266 269 267 256 244 242 245 245 247 248 250 253 255 257 258 257 256 255 256 259 263 268 273 278 282 286 288 291 296 300 304 307 309 309 310 312 316 320 321 322 322 322 322 322 321 319 318 319 320 321 323 326 329 331
211 213 213 213 212 213 216 218 220 225 230 235 241 248 251 254 257 259 258 256 255 254 255 257 259 259 256 255 256 258 260 263 265 262 254 245 241 242 244 246 248 250 253 255 257 258 258 257 256 257 260 264 268 273 277 281 284 287 290 294 298 301 304 306 307 307 309 314 318 319 320 320 320 321 321 320 318 318 319 321 322 324 326 328 330
211 214 214 213 212 214 216 218 221 227 232 238 244 249 251 251 252 253 252 252 251 250 252 255 256 255 254 254 255 256 257 259 261 259 253 247 244 243 243 245 248 250 253 256 257 258 258 258 258 259 261 265 269 273 276 279 283 286 289 293 296 299 302 304 304 304 307 312 316 318 318 318 319 320 320 319 318 318 319 321 323 323 325 327 329
211 213 213 212 212 214 218 220 224 228 233 239 244 245 244 243 245 248 249 249 249 250 252 253 253 252 252 253 254 255 257 257 258 257 254 252 250 249 248 249 251 253 256 258 259 260 261 261 261 262 263 266 270 273 276 279 281 285 288 291 295 298 300 301 301 301 305 309 313 315 315 316 317 318 319 319 319 319 319 320 321 322 323 325 327
211 213 212 211 210 214 219 223 227 229 235 239 238 236 235 238 242 245 247 249 249 250 251 252 253 253 253 254 256 258 259 259 260 261 261 262 261 259 257 257 259 260 262 263 264 265 265 265 266 266 267 269 271 274 276 278 281 284 286 289 293 296 297 297 298 299 302 305 309 311 312 313 315 316 317 318 319 320 319 320 320 321 322 323 325
212 212 212 210 211 216 221 225 228 231 235 234 229 230 235 240 243 245 248 251 252 251 250 252 255 256 257 258 258 260 262 263 267 270 269 267 265 262 259 259 262 264 265 267 269 270 270 270 269 269 269 271 272 274 275 277 280 282 285 288 291 292 293 295 296 297 299 301 305 308 309 311 314 315 315 316 318 320 320 320 320 320 320 321 323
211 211 211 211 213 218 222 225 229 233 235 230 226 233 242 246 247 249 253 256 256 254 253 254 257 259 259 260 260 262 264 268 272 271 267 265 264 264 264 265 265 265 264 266 270 272 273 272 271 271 271 272 273 273 275 276 279 281 283 287 289 290 291 293 294 295 296 298 301 304 305 308 311 313 313 313 315 318 319 320 320 319 319 319 320
210 209 210 211 215 219 222 227 232 235 233 228 229 238 246 250 252 255 257 259 259 258 256 254 256 258 258 259 260 261 263 266 266 264 263 264 266 268 269 269 269 267 264 265 268 270 271 272 272 272 272 273 273 274 275 277 278 280 283 285 286 287 289 291 292 293 294 295 297 300 302 304 308 310 311 311 313 315 317 319 319 318 317 317 318
208 208 209 212 215 218 223 228 232 232 231 231 235 241 247 252 255 257 259 260 261 260 257 256 257 258 257 256 257 257 258 260 260 262 265 267 268 269 269 270 270 268 267 268 269 270 270 269 269 269 271 272 274 275 276 276 277 278 280 283 284 285 288 289 290 291 292 292 294 296 299 301 304 306 308 310 311 313 315 317 318 318 317 316 316
206 207 209 211 214 219 224 227 229 231 234 237 240 243 248 252 256 258 261 261 261 259 257 255 255 254 253 252 252 253 255 257 259 262 265 267 269 270 271 271 272 271 272 271 271 272 273 270 267 268 269 269 270 274 276 277 277 277 278 280 282 284 286 288 288 289 290 290 291 294 297 299 301 303 305 307 310 312 313 315 317 318 318 316 315
206 207 209 212 216 220 223 226 228 233 237 241 243 246 249 253 255 258 259 259 259 257 254 251 249 248 249 249 251 253 254 257 260 262 265 267 271 273 274 275 275 276 277 276 275 278 280 276 270 268 268 266 268 273 277 278 278 277 277 279 280 282 284 286 286 287 288 288 289 292 295 297 299 301 303 305 306 308 310 312 313 316 317 316 315
206 209 211 215 219 221 223 226 230 235 239 243 246 248 251 254 255 256 256 255 255 252 249 246 245 246 249 252 254 256 257 260 262 265 267 269 271 274 276 278 278 279 280 282 283 284 285 283 277 271 267 270 277 282 283 282 279 276 275 277 280 282 283 283 284 285 286 287 288 291 293 295 297 298 301 302 303 305 308 310 310 312 314 315 314
209 211 215 219 221 223 226 230 233 237 241 245 248 250 253 254 254 254 252 249 247 245 245 245 246 248 250 253 255 255 257 259 262 264 267 269 270 272 274 276 279 280 283 284 285 286 289 291 288 279 273 278 286 289 287 284 280 276 274 276 280 281 281 282 283 284 285 286 287 290 292 293 295 297 299 300 301 303 307 309 308 309 311 313 313
211 214 217 221 223 227 230 233 236 240 242 245 247 249 250 251 251 249 246 243 242 242 243 244 245 246 248 250 252 254 257 260 262 264 266 268 271 274 275 277 279 282 284 285 286 288 291 296 297 292 285 286 291 293 290 285 279 275 276 280 283 282 280 280 282 283 284 285 287 289 290 292 294 296 297 299 301 302 305 307 307 307 308 310 311
212 215 219 222 225 229 231 234 236 237 238 239 240 241 242 243 243 242 239 238 238 238 239 240 242 244 247 250 253 256 259 261 263 264 267 270 273 276 279 282 283 284 285 286 287 289 291 293 295 294 291 290 291 294 294 286 276 276 284 286 285 282 278 278 281 283 284 285 286 288 289 290 292 294 296 299 301 301 303 306 306 306 306 307 309
212 215 219 223 225 227 228 228 229 230 231 232 232 233 236 238 238 238 238 239 239 239 240 241 243 246 248 251 255 258 260 262 264 267 270 273 276 280 283 285 287 286 286 287 288 288 289 290 291 289 290 290 290 294 296 288 276 279 288 288 283 280 278 279 282 283 282 284 285 286 288 289 291 293 296 298 299 299 301 304 304 303 303 304 306
210 213 217 220 221 222 223 224 227 229 231 233 233 235 238 241 242 243 243 244 244 245 246 246 247 249 252 255 258 261 263 266 269 272 275 278 281 283 284 286 287 286 286 286 286 285 286 287 287 286 288 290 290 291 293 288 281 282 288 286 280 277 278 280 282 282 281 283 283 284 287 290 291 293 295 297 298 298 299 301 302 301 300 301 303
211 212 215 216 218 222 226 228 231 233 236 238 239 241 245 247 247 247 247 247 248 250 252 253 254 256 258 260 263 266 269 272 274 276 279 281 282 282 283 284 285 285 285 284 283 284 285 285 285 287 289 291 292 291 289 285 281 284 287 284 278 275 278 282 283 282 282 282 283 284 287 289 290 292 295 297 297 297 298 299 299 300 299 300 302
212 212 215 219 224 231 235 236 239 242 245 247 249 250 252 251 249 249 248 249 252 255 257 259 261 262 263 265 268 270 272 274 276 277 279 280 281 281 282 282 282 281 281 282 282 283 283 283 284 286 288 290 290 289 289 287 285 287 289 285 278 276 279 282 283 283 284 285 287 289 290 290 291 293 296 297 297 297 296 296 297 298 298 299 301
214 216 223 228 231 237 242 245 249 253 255 257 259 259 259 256 252 251 252 253 257 259 261 264 265 267 268 270 272 273 275 276 278 279 280 281 281 281 280 279 279 278 278 279 280 279 279 281 284 286 287 287 286 286 288 289 288 289 289 285 280 278 280 283 283 282 283 286 288 290 291 293 295 296 297 299 300 299 297 295 295 296 298 299 299
216 222 229 232 235 241 246 250 254 257 260 263 264 263 262 258 255 255 256 258 261 263 266 268 270 271 273 275 276 278 279 280 281 281 281 280 280 279 279 279 278 278 278 277 277 277 279 282 283 284 285 286 287 286 287 287 287 288 289 288 284 281 280 282 282 282 282 284 285 287 290 292 294 297 300 303 304 302 299 295 294 295 297 297 297
220 226 231 234 239 244 248 252 256 259 262 264 264 263 262 260 259 260 263 265 268 269 270 272 273 274 275 276 278 279 279 279 280 280 279 279 278 278 279 279 279 280 279 278 279 280 281 281 282 283 285 286 287 287 287 287 287 289 292 294 291 286 282 282 282 281 280 281 283 287 291 293 295 298 300 302 302 301 298 294 292 294 296 295 295
222 226 231 236 241 246 250 253 257 260 262 263 263 263 262 263 265 268 270 272 273 274 274 274 274 275 275 276 276 276 276 276 276 276 276 276 276 277 278 279 279 279 279 280 281 282 281 281 283 284 286 286 284 283 283 283 284 285 288 293 294 292 291 290 287 282 279 280 284 288 290 292 293 296 297 298 299 298 296 291 290 292 294 294 293
224 227 233 239 243 247 251 254 257 260 262 263 263 265 266 268 271 273 274 274 274 273 273 272 272 273 273 274 273 273 272 272 272 273 274 274 274 276 277 278 278 278 279 280 281 281 281 282 283 284 283 282 281 280 280 280 281 282 285 289 292 294 296 296 292 285 280 282 286 288 288 289 290 292 294 295 296 295 292 289 287 290 293 292 290